Tracking 19575 objects as of 20-Feb-2019
HD Live streaming from Space Station
objects crossing your sky now

THORAD DELTA 1 DEB

Track THORAD DELTA 1 DEB now!
10-day predictions


NORAD ID: 8169
Int'l Code: 1974-089AK
Perigee: 1,194.1 km
Apogee: 1,440.6 km
Inclination: 102.5 °
Period: 111.8 minutes
Semi major axis: 7688 km
RCS: 0.058 m2 (small)
Launch date: November 15, 1974
Source: United States (US)
Launch site: AIR FORCE WESTERN TEST RANGE (AFWTR)

Note: This is SATELLITE DEBRIS
aabbcc
Your satellite tracking list
Your tracking list is empty




NASA's NSSDC Master Catalog

Two Line Element Set (TLE):
1  8169U 74089AK  19050.45429924  .00001802  00000-0  69164-2 0  9995
2  8169 102.5211  22.2756 0160338  82.5572  34.9781 12.87810662 56398
Source of the keplerian elements: AFSPC